Weather History for Orangeburg, SC

Change the Weather History Date:

Saturday, December 29, 2012

  Actual Average Record
Temperature  
Mean Temperature 49 °F 46 °F  
Max Temperature 56 °F 56 °F 78 °F (1982)
Min Temperature 41 °F 35 °F 19 °F (1977)
Degree Days  
Heating Degree Days 16 19  
Month to date heating degree days 318 496  
Since 1 July heating degree days 768 865  
Cooling Degree Days 0 0  
Month to date cooling degree days 2 0  
Year to date cooling degree days 2322 2102  
Growing Degree Days 0 (Base 50)    
Moisture  
Dew Point 41 °F    
Average Humidity 82    
Maximum Humidity 93    
Minimum Humidity 54    
Precipitation  
Precipitation 0.96 in 0.09 in 1.21 in (1983)
Month to date precipitation 4.38 3.13  
Year to date precipitation 42.68 46.54  
Sea Level Pressure  
Sea Level Pressure 29.84 in    
Wind  
Wind Speed 12 mph (NW)    
Max Wind Speed 25 mph    
Max Gust Speed 36 mph    
Visibility 7 miles    
Events Rain    
T = Trace of Precipitation, MM = Missing Value Source: NWS Daily Summary

Daily Weather History Graph

Daily Weather History Graph

Search for Another Location

Airport:

Trip Planner

Search our weather history database for the weather conditions in past years. The results will help you decide how hot, cold, wet, or windy it might be!

Date:

Astronomy

Dec. 29, 2012 Rise Set
Actual Time 7:26 AM EST 5:24 PM EST
Civil Twilight 6:59 AM EST 5:52 PM EST
Nautical Twilight 6:28 AM EST 6:23 PM EST
Astronomical Twilight 5:58 AM EST 6:53 PM EST
Moon 6:51 PM EST (12/29) 8:03 AM EST (12/29)
Length of Visible Light 10h 52m
Length of Day
9h 57m
Full, 98% of the Moon is Illuminated
Dec 29
Full
Jan 4
Last Quarter
Jan 11
New
Jan 18
First Quarter
Jan 26
Full

Hourly Weather History & Observations

Time (EST) Temp. Windchill Dew Point Humidity Pressure Visibility Wind Dir Wind Speed Gust Speed Precip Events Conditions
12:00 AM 46.4 °F 45.2 °F 42.8 °F 87% 29.93 in 10.0 mi East 3.5 mph - N/A   Mostly Cloudy
12:53 AM 46.9 °F - 42.1 °F 83% 29.91 in 10.0 mi Calm Calm - 0.00 in Rain Light Rain
1:30 AM 46.4 °F 45.2 °F 42.8 °F 87% 29.89 in 7.0 mi ENE 3.5 mph - 0.02 in Rain Light Rain
1:53 AM 46.0 °F 43.1 °F 43.0 °F 89% 29.90 in 8.0 mi North 5.8 mph - 0.03 in Rain Light Rain
2:53 AM 46.0 °F 41.9 °F 43.0 °F 89% 29.81 in 4.0 mi ENE 8.1 mph - 0.09 in Rain Light Rain
3:09 AM 46.4 °F 42.4 °F 42.8 °F 87% 29.79 in 5.0 mi ENE 8.1 mph - 0.02 in Rain Rain
3:19 AM 46.4 °F 42.9 °F 42.8 °F 87% 29.79 in 3.0 mi NE 6.9 mph - 0.06 in Rain Heavy Rain
3:31 AM 44.6 °F 39.7 °F 42.8 °F 93% 29.80 in 2.0 mi NNE 9.2 mph - 0.18 in Rain Heavy Rain
3:40 AM 44.6 °F 39.2 °F 42.8 °F 93% 29.79 in 3.0 mi North 10.4 mph - 0.22 in Rain Heavy Rain
3:53 AM 45.0 °F 39.3 °F 43.0 °F 93% 29.84 in 1.8 mi NNW 11.5 mph - 0.34 in Rain Heavy Rain
3:58 AM 44.6 °F 38.4 °F 42.8 °F 93% 29.80 in 2.0 mi NNE 12.7 mph - 0.04 in Rain Heavy Rain
4:12 AM 44.6 °F 39.7 °F 42.8 °F 93% 29.79 in 2.5 mi NE 9.2 mph - 0.10 in Rain Heavy Rain
4:42 AM 44.6 °F 40.2 °F 42.8 °F 93% 29.80 in 3.0 mi North 8.1 mph - 0.24 in Rain Rain
4:50 AM 44.6 °F 38.4 °F 42.8 °F 93% 29.79 in 2.5 mi North 12.7 mph - 0.26 in Rain Rain
4:53 AM 45.0 °F 38.9 °F 42.1 °F 90% 29.79 in 3.0 mi North 12.7 mph - 0.27 in Rain Rain
5:14 AM 44.6 °F 39.7 °F 42.8 °F 93% 29.77 in 2.5 mi North 9.2 mph - 0.11 in Rain Heavy Rain
5:29 AM 44.6 °F 40.7 °F 42.8 °F 93% 29.79 in 2.5 mi North 6.9 mph - 0.20 in Rain Heavy Rain
5:42 AM 44.6 °F 40.7 °F 42.8 °F 93% 29.79 in 5.0 mi NNW 6.9 mph - 0.21 in Rain Light Rain
5:53 AM 45.0 °F 43.5 °F 42.1 °F 90% 29.79 in 5.0 mi Variable 3.5 mph - 0.22 in Rain Light Rain
6:02 AM 44.6 °F 42.2 °F 42.8 °F 93% 29.77 in 3.0 mi ENE 4.6 mph - 0.01 in Rain Light Rain
6:13 AM 44.6 °F - 42.8 °F 93% 29.78 in 8.0 mi Calm Calm - 0.01 in Rain Light Rain
6:20 AM 44.6 °F 43.1 °F 42.8 °F 93% 29.77 in 10.0 mi SE 3.5 mph - 0.01 in   Overcast
6:31 AM 44.6 °F 43.1 °F 42.8 °F 93% 29.76 in 10.0 mi Variable 3.5 mph - 0.01 in   Overcast
6:40 AM 44.6 °F - 42.8 °F 93% 29.75 in 10.0 mi Calm Calm - 0.01 in Rain Light Rain
6:53 AM 45.0 °F - 43.0 °F 93% 29.77 in 10.0 mi Calm Calm - 0.01 in   Overcast
7:53 AM 46.0 °F - 43.0 °F 89% 29.78 in 10.0 mi Calm Calm - N/A   Overcast
8:20 AM 46.4 °F 42.9 °F 44.6 °F 93% 29.79 in 5.0 mi NW 6.9 mph - N/A   Overcast
8:53 AM 46.0 °F 43.1 °F 44.1 °F 93% 29.81 in 6.0 mi WNW 5.8 mph - N/A   Overcast
9:53 AM 48.0 °F - 45.0 °F 89% 29.83 in 7.0 mi WNW 8.1 mph - N/A   Overcast
10:18 AM 48.2 °F - 44.6 °F 87% 29.83 in 8.0 mi WNW 9.2 mph - N/A   Overcast
10:53 AM 48.9 °F - 45.0 °F 86% 29.84 in 9.0 mi West 9.2 mph - N/A   Overcast
11:13 AM 50.0 °F - 46.4 °F 87% 29.84 in 10.0 mi West 10.4 mph 19.6 mph N/A   Overcast
11:43 AM 51.8 °F - 44.6 °F 76% 29.83 in 10.0 mi West 16.1 mph 26.5 mph N/A   Scattered Clouds
11:53 AM 52.0 °F - 43.0 °F 71% 29.82 in 10.0 mi West 17.3 mph 25.3 mph N/A   Mostly Cloudy
12:53 PM 53.1 °F - 41.0 °F 64% 29.81 in 10.0 mi West 19.6 mph 26.5 mph N/A   Mostly Cloudy
1:18 PM 51.8 °F - 41.0 °F 67% 29.81 in 10.0 mi West 17.3 mph 24.2 mph N/A   Scattered Clouds
1:53 PM 54.0 °F - 41.0 °F 62% 29.79 in 10.0 mi West 21.9 mph 25.3 mph N/A   Partly Cloudy
2:53 PM 55.0 °F - 39.9 °F 57% 29.81 in 10.0 mi West 19.6 mph 31.1 mph N/A   Mostly Cloudy
3:53 PM 53.1 °F - 37.9 °F 57% 29.83 in 10.0 mi West 13.8 mph 26.5 mph N/A   Mostly Cloudy
4:53 PM 51.1 °F - 37.9 °F 61% 29.86 in 10.0 mi WSW 17.3 mph - N/A   Mostly Cloudy
6:53 PM 45.0 °F 40.6 °F 34.0 °F 65% 29.94 in 10.0 mi West 8.1 mph 20.7 mph N/A   Partly Cloudy
7:53 PM 46.0 °F 38.8 °F 32.0 °F 58% 29.97 in 10.0 mi WNW 18.4 mph 28.8 mph N/A   Overcast
8:53 PM 44.1 °F 36.5 °F 30.9 °F 60% 30.01 in 10.0 mi West 17.3 mph 24.2 mph N/A   Clear
9:53 PM 42.1 °F 34.9 °F 28.9 °F 60% 30.03 in 10.0 mi WNW 13.8 mph - N/A   Clear
10:53 PM 41.0 °F 33.9 °F 28.9 °F 62% 30.06 in 10.0 mi West 12.7 mph 18.4 mph N/A   Clear
11:53 PM 41.0 °F 34.3 °F 28.0 °F 60% 30.09 in 10.0 mi WNW 11.5 mph - N/A   Clear